Change the Weather History Date:

Sunday, August 25, 2013

  Actual Average (KDLZ) Record (KDLZ)
Temperature  
Mean Temperature 68 °F -  
Max Temperature 82 °F 80 °F 95 °F (1959)
Min Temperature 55 °F 57 °F 41 °F (1942)
Cooling Degree Days 4    
Growing Degree Days 18 (Base 50)    
Moisture  
Dew Point 57 °F    
Average Humidity 68    
Maximum Humidity 87    
Minimum Humidity 42    
Precipitation  
Precipitation 0.00 in - - ()
Sea Level Pressure  
Sea Level Pressure 30.30 in    
Wind  
Wind Speed 3 mph (SSW)    
Max Wind Speed 10 mph    
Max Gust Speed -    
Visibility 9 miles    
Events      
Averages and records for this station are not official NWS values.
T = Trace of Precipitation, MM = Missing Value Source: NWS Daily Summary

Daily Weather History Graph

Daily Weather History Graph

Search for Another Location

Airport or City:

Trip Planner

Search our weather history database for the weather conditions in past years. The results will help you decide how hot, cold, wet, or windy it might be!

Date:

Astronomy

Aug. 25, 2013 Rise Set
Actual Time 6:52 AM EDT 8:14 PM EDT
Civil Twilight 6:24 AM EDT 8:43 PM EDT
Nautical Twilight 5:49 AM EDT 9:17 PM EDT
Astronomical Twilight 5:13 AM EDT 9:53 PM EDT
Moon 10:43 PM EDT (8/25) 11:55 AM EDT (8/25)
Length of Visible Light 14h 19m
Length of Day
13h 22m
Waning Gibbous, 76% of the Moon is Illuminated
Aug 25
Waning Gibbous
Aug 28
Last Quarter
Sep 5
New
Sep 12
First Quarter
Sep 19
Full

Hourly Weather History & Observations

Time (EDT) Temp. Heat Index Dew Point Humidity Pressure Visibility Wind Dir Wind Speed Gust Speed Precip Events Conditions
12:53 AM 59.0 °F - 55.0 °F 87% 30.30 in 10.0 mi Calm Calm - N/A   Clear
1:53 AM 60.1 °F - 54.0 °F 80% 30.29 in 10.0 mi Calm Calm - N/A   Clear
2:53 AM 57.9 °F - 53.1 °F 84% 30.29 in 10.0 mi Calm Calm - N/A   Clear
3:53 AM 57.0 °F - 53.1 °F 87% 30.31 in 10.0 mi Calm Calm - N/A   Clear
4:53 AM 57.0 °F - 53.1 °F 87% 30.32 in 10.0 mi Calm Calm - N/A   Clear
5:53 AM 55.9 °F - 52.0 °F 87% 30.32 in 10.0 mi South 4.6 mph - N/A   Clear
6:53 AM 57.0 °F - 53.1 °F 87% 30.34 in 10.0 mi SSE 3.5 mph - N/A   Clear
7:53 AM 59.0 °F - 55.0 °F 87% 30.36 in 9.0 mi Calm Calm - N/A   Partly Cloudy
8:53 AM 64.0 °F - 57.0 °F 78% 30.35 in 10.0 mi South 8.1 mph - N/A   Clear
9:53 AM 71.1 °F - 61.0 °F 70% 30.34 in 8.0 mi SSW 6.9 mph - N/A   Clear
10:53 AM 77.0 °F - 61.0 °F 58% 30.33 in 9.0 mi SW 10.4 mph - N/A   Clear
11:53 AM 79.0 °F - 60.1 °F 52% 30.34 in 9.0 mi SSW 6.9 mph - N/A   Clear
12:53 PM 80.1 °F 80.7 °F 59.0 °F 48% 30.33 in 9.0 mi SSW 5.8 mph - N/A   Partly Cloudy
1:53 PM 80.1 °F 80.4 °F 57.0 °F 45% 30.31 in 9.0 mi SSW 4.6 mph - N/A   Scattered Clouds
2:53 PM 80.1 °F 80.2 °F 55.9 °F 43% 30.30 in 9.0 mi SSW 5.8 mph - N/A   Partly Cloudy
3:53 PM 82.0 °F 81.7 °F 57.0 °F 42% 30.27 in 9.0 mi WSW 9.2 mph - N/A   Mostly Cloudy
4:53 PM 82.0 °F 81.7 °F 57.0 °F 42% 30.26 in 9.0 mi SSW 5.8 mph - N/A   Partly Cloudy
5:53 PM 81.0 °F 81.1 °F 57.9 °F 45% 30.25 in 9.0 mi SSW 9.2 mph - N/A   Clear
6:53 PM 79.0 °F - 57.0 °F 47% 30.24 in 9.0 mi SSW 6.9 mph - N/A   Clear
7:53 PM 75.0 °F - 59.0 °F 57% 30.23 in 10.0 mi South 4.6 mph - N/A   Clear
8:53 PM 68.0 °F - 59.0 °F 73% 30.25 in 4.0 mi SSW 4.6 mph - N/A   Haze
9:53 PM 64.9 °F - 59.0 °F 81% 30.25 in 10.0 mi South 5.8 mph - N/A   Clear
10:53 PM 66.0 °F - 59.0 °F 78% 30.25 in 10.0 mi South 5.8 mph - N/A   Clear
11:53 PM 64.0 °F - 59.0 °F 84% 30.26 in 8.0 mi South 4.6 mph - N/A   Clear